WetterOnline ( https://www.wetteronline.de )

Wetter aktuell Potsdam

Aktuelles Wetter: Berlin-Dahlem (70m)

6-stündlich | Neueste Meldungen
Ortszeit Temperatur Wetter
Fr, 18.09. 20:00 12.5° C leicht bewölkt
Fr, 18.09. 14:00 18.5° C leicht bewölkt
Fr, 18.09. 8:00 5.6° C leicht bewölkt
Fr, 18.09. 2:00 8.2° C wolkenlos
Do, 17.09. 20:00 14.1° C leicht bewölkt
Do, 17.09. 14:00 17.6° C fast wolkenlos
Do, 17.09. 8:00 12.4° C fast wolkenlos
Do, 17.09. 2:00 15.8° C fast wolkenlos
Ortszeit Temperatur Wetter
Sa, 19.09. 1:00 7.7° C leicht bewölkt
Sa, 19.09. 0:00 8.2° C leicht bewölkt
Fr, 18.09. 23:00 8.6° C leicht bewölkt
Fr, 18.09. 22:00 9.7° C leicht bewölkt
Fr, 18.09. 21:00 10.9° C leicht bewölkt
Fr, 18.09. 20:00 12.5° C leicht bewölkt
Ortszeit Relative Feuchte Sichtweite
Fr, 18.09. 20:00 59% 55 km
Fr, 18.09. 14:00 36% 55 km
Fr, 18.09. 8:00 100% 60 km
Fr, 18.09. 2:00 82% 60 km
Do, 17.09. 20:00 52% 60 km
Do, 17.09. 14:00 47% 60 km
Do, 17.09. 8:00 84% 50 km
Do, 17.09. 2:00 83% 50 km
Ortszeit Relative Feuchte Sichtweite
Sa, 19.09. 1:00 78% 50 km
Sa, 19.09. 0:00 79% 45 km
Fr, 18.09. 23:00 74% 45 km
Fr, 18.09. 22:00 71% 50 km
Fr, 18.09. 21:00 68% 50 km
Fr, 18.09. 20:00 59% 55 km
Ortszeit Niederschlagsmenge Niederschlagsart
Fr, 18.09. 20:00 0.0 l/m2 in 12 Std. -
Fr, 18.09. 14:00 0.0 l/m2 in 6 Std. -
Fr, 18.09. 8:00 0.0 l/m2 in 12 Std. -
Fr, 18.09. 2:00 0.0 l/m2 in 6 Std. -
Do, 17.09. 20:00 0.0 l/m2 in 12 Std. -
Do, 17.09. 14:00 0.0 l/m2 in 6 Std. -
Do, 17.09. 8:00 0.0 l/m2 in 12 Std. -
Do, 17.09. 2:00 0.0 l/m2 in 6 Std. -
Ortszeit Niederschlagsmenge Niederschlagsart
Sa, 19.09. 1:00 keine Meldung -
Sa, 19.09. 0:00 keine Meldung -
Fr, 18.09. 23:00 keine Meldung -
Fr, 18.09. 22:00 keine Meldung -
Fr, 18.09. 21:00 keine Meldung -
Fr, 18.09. 20:00 keine Meldung -
Ortszeit Stärke Spitze Richtung
km/h Bft. km/h Grad Sektor
Fr, 18.09. 20:00 11 2 - 140° SO
Fr, 18.09. 14:00 7 2 - 110° O
Fr, 18.09. 8:00 7 2 - 110° O
Fr, 18.09. 2:00 11 2 - 90° O
Do, 17.09. 20:00 11 2 - 60° NO
Do, 17.09. 14:00 14 3 - 20° N
Do, 17.09. 8:00 14 3 - 360° N
Do, 17.09. 2:00 14 3 - 330° NW
Ortszeit Stärke Spitze Richtung
km/h Bft. km/h Grad Sektor
Sa, 19.09. 1:00 11 2 - 120° SO
Sa, 19.09. 0:00 11 2 - 110° O
Fr, 18.09. 23:00 11 2 - 120° SO
Fr, 18.09. 22:00 11 2 - 130° SO
Fr, 18.09. 21:00 11 2 - 130° SO
Fr, 18.09. 20:00 11 2 - 140° SO
Ortszeit Untergrenze Bedeckung Gattung
total tief tief mittel hoch
Fr, 18.09. 20:00 10500 m 6/8 0/8 - - Ci
Fr, 18.09. 14:00 10500 m 4/8 0/8 - - Ci
Fr, 18.09. 8:00 9000 m 6/8 0/8 - - Ci
Fr, 18.09. 2:00 - 0/8 0/8 - - -
Do, 17.09. 20:00 9000 m 2/8 0/8 - - Ci
Do, 17.09. 14:00 1500 m 1/8 1/8 Cu - Ci
Do, 17.09. 8:00 630 m 2/8 2/8 Cu - -
Do, 17.09. 2:00 690 m 1/8 1/8 Sc - -
Ortszeit Bedeckungsgrad in Achtel und Wolkenuntergrenze
Sa, 19.09. 1:00 2(9000m)
Sa, 19.09. 0:00 2(9000m)
Fr, 18.09. 23:00 3(9000m)
Fr, 18.09. 22:00 6(10500m)
Fr, 18.09. 21:00 1(10500m) 5(12000m)
Fr, 18.09. 20:00 1(10500m) 5(12000m)
Ortszeit Luftdruck NN (hPa) Tendenz (hPa in 3 Std.)
Fr, 18.09. 20:00 1028 - 0,6
Fr, 18.09. 14:00 1030 - 1,1
Fr, 18.09. 8:00 1031 + 0,1
Fr, 18.09. 2:00 1030 - 0,5
Do, 17.09. 20:00 1029 - 0,7
Do, 17.09. 14:00 1029 + 0,3
Do, 17.09. 8:00 1026 + 2,3
Do, 17.09. 2:00 1022 + 2,1
Ortszeit Luftdruck NN (hPa) Tendenz (hPa in 3 Std.)
Sa, 19.09. 1:00 1027 - 0,5
Sa, 19.09. 0:00 1027 - 0,3
Fr, 18.09. 23:00 1028 - 0,2
Fr, 18.09. 22:00 1028 0,0
Fr, 18.09. 21:00 1028 - 0,1
Fr, 18.09. 20:00 1028 - 0,6
Ortszeit Schneehöhe (cm)
Fr, 18.09. 20:00 0
Fr, 18.09. 14:00 0
Fr, 18.09. 8:00 0
Fr, 18.09. 2:00 0
Do, 17.09. 20:00 0
Do, 17.09. 14:00 0
Do, 17.09. 8:00 0
Do, 17.09. 2:00 0
Ortszeit Schneehöhe (cm)
Sa, 19.09. 1:00 -
Sa, 19.09. 0:00 -
Fr, 18.09. 23:00 -
Fr, 18.09. 22:00 -
Fr, 18.09. 21:00 -
Fr, 18.09. 20:00 0
Link zu dieser Seite / Seite empfehlen

Das Wetter in ...